Regional Weather Roundup
Issued by NWS Goodland, KS

Home | Current Version | Previous Version | Graphics & Text | Print | Product List | Glossary On
Versions: 1 2 3 4 5 6 7 8 9 10 11 12 13 14 15 16 17 18 19 20 21 22 23 24 25 26 27 28 29 30 31 32 33 34 35 36 37 38 39 40 41 42 43 44 45 46 47 48 49 50
000
ASUS43 KGLD 311108
RWRGLD

GOODLAND FORECAST AREA HOURLY WEATHER ROUNDUP
NATIONAL WEATHER SERVICE GOODLAND KS
500 AM MDT FRI JUL 31 2015

...OFFICIAL OBSERVATIONS...

CITY           SKY/WX    TMP DP  RH WIND       PRES   REMARKS
GOODLAND KS    FOG       58  58 100 S6        30.28R VSB 1/4
HILL CITY KS   CLEAR     68  66  93 CALM      30.21R
IMPERIAL NEB   CLEAR     60  56  86 W3        30.24R
MCCOOK NEB     CLEAR     64  61  90 CALM      30.21R
AKRON CO       CLEAR     58  55  90 SE6       30.32R
BURLINGTON CO  CLEAR     61  57  87 CALM      30.31R
LIMON CO       CLEAR     50  50 100 NW3       30.35R
$$

...UNOFFICIAL OBSERVATIONS...

CITY           SKY/WX    TMP DP  RH WIND       PRES   REMARKS
SHARON SPRINGS   N/A     64  62  94 CALM        N/A
KIT CARSON CO    N/A     60  55  85 MISG        N/A
YUMA CO          N/A     58  56  93 CALM        N/A
$$



USA.gov is the U.S. government's official web portal to all federal, state and local government web resources and services.